Location: East Irvine
(33.6759°N, 117.7598°W)
Time: 14:24:20
(UTC+00:00)

SL-16 R/B - Visible Passes

Search period start: 14 February 2026 00:00
Search period end: 24 February 2026 00:00
Orbit: 985 x 1007 km, 99.8° (Epoch: 13 February)

Date Brightness Start Highest point End Pass type
(mag) Time Alt. Az. Time Alt. Az. Time Alt. Az.
16 Feb 5.2 02:16:16 10° NNW 02:19:20 14° WNW 02:22:23 10° W visible
19 Feb 5.1 02:04:00 10° NNW 02:07:58 18° WNW 02:11:59 10° WSW visible
20 Feb5.511:02:13N11:02:13N10:47:15SEvisible
21 Feb5.311:32:57N11:32:57N11:18:29SSEvisible
22 Feb4.912:03:41NNW12:03:41NNW11:49:44SSEvisible
23 Feb 5.3 02:24:30 10° NW 02:26:51 12° WNW 02:29:11 10° W visible
23 Feb5.310:49:19N10:49:19N10:35:54SEvisible
23 Feb 4.7 12:20:54 10° S 12:34:22 - NNW 12:20:59 10° S visible
